www.pogodaiklimat.ru

Погода и климат >> Архив погоды >> Индия >> Гуджарат >> Оха


ПОГОДА в Охе

  • Прогноз погоды в Охе
  • Монитор погоды в Охе

АРХИВ ПОГОДЫ в Охе

Время (UTC), дата Ветер
(напр.,м/с)
 
Видим.   Явления Облачность Т
(С)
Тd
(С)
f
(%)
Тe
(С)
Тes
(С)
Комфортность P
(гПа)
Po
(гПа)
Тmin
(С)
Tmax
(С)
R
(мм)
R24
(мм)
S
(см)
06 13.02 З 2 4000 м 3/3 600 м
[Sc]
+25.2 0.0 19 +24 +33 комфорт 1019.4 1018.6
09 13.02 СЗ 2 4000 м 3/3 600 м
[Sc]
+25.2 +19.3 70 +30 +40 душно 1016.7 1015.9
12 13.02 СЗ 2 4000 м ясно +24.6 0.0 20 +23 +25 комфорт 1015.9 1015.1 +26.1
15 13.02 СЗ 2 4000 м ясно +21.4 +18.9 86 +26 +26 душно 1017.3 1016.5
18 13.02 СЗ 1 4000 м ясно +20.8 +17.6 82 +26 +26 душно 1017.6 1016.8
21 13.02 С 2 4000 м ясно +20.4 +16.4 78 +24 +24 комфорт 1016.7 1015.9
00 14.02 С 2 4000 м ясно +20.2 +15.9 76 +23 +23 комфорт 1016.1 1015.3
03 14.02 С 2 4000 м ясно +20.0 0.0 26 +21 +23 комфорт 1017.0 1016.2 +19.5
06 14.02 С 1 4000 м ясно +22.0 0.0 23 +21 +36 комфорт 1018.7 1017.9
09 14.02 СЗ 2 4000 м ясно +23.6 0.0 21 +22 +36 комфорт 1015.9 1015.1
12 14.02 СЗ 2 4000 м ясно +23.6 0.0 21 +22 +24 комфорт 1014.5 1013.7 +24.5
15 14.02 З 1 4000 м ясно +21.6 +16.3 72 +25 +25 комфорт 1015.4 1014.6
18 14.02 СЗ 1 4000 м ясно +21.2 +17.0 77 +25 +25 комфорт 1016.6 1015.8
21 14.02 С 2 4000 м ясно +20.8 +17.6 82 +25 +25 комфорт 1015.4 1014.6
00 15.02 СЗ 1 4000 м ясно +19.8 +18.2 90 +24 +24 комфорт 1015.4 1014.6
03 15.02 СЗ 1 4000 м ясно +20.6 0.0 25 +22 +24 комфорт 1017.8 1017.0 +18.4
06 15.02 С 2 4000 м ясно +22.8 0.0 22 +22 +36 комфорт 1018.8 1018.0
09 15.02 С 2 4000 м ясно +23.8 0.0 21 +23 +36 комфорт 1016.3 1015.5
12 15.02 СЗ 2 4000 м ясно +23.8 0.0 21 +23 +24 комфорт 1015.5 1014.7 +24.7
15 15.02 СЗ 2 4000 м ясно +21.8 +19.3 86 +27 +27 душно 1017.1 1016.3
18 15.02 СЗ 2 4000 м ясно +21.4 +16.5 74 +25 +25 комфорт 1018.1 1017.3
21 15.02 СЗ 2 4000 м ясно +20.8 +16.9 78 +25 +25 комфорт 1017.2 1016.4
00 16.02 С 2 4000 м ясно +20.4 +15.0 71 +24 +24 комфорт 1016.3 1015.5
03 16.02 В 2 4000 м ясно +21.6 0.0 24 +21 +23 комфорт 1018.5 1017.7 +20.2
06 16.02 В 2 4000 м ясно +23.2 0.0 21 +22 +36 комфорт 1019.7 1018.9
09 16.02 В 2 4000 м ясно +24.0 0.0 20 +23 +36 комфорт 1017.3 1016.5
12 16.02 В 1 4000 м ясно +24.8 0.0 20 +23 +25 комфорт 1015.8 1015.0 +26.7
15 16.02 С 3 4000 м ясно +22.0 +19.2 84 +27 +27 душно 1016.5 1015.7
18 16.02 С 3 4000 м ясно +22.0 +17.5 76 +27 +27 душно 1018.2 1017.4
21 16.02 С 1 4000 м ясно +21.0 +16.7 76 +26 +26 душно 1016.3 1015.5
00 17.02 С 1 4000 м ясно +21.0 +17.8 82 +26 +26 душно 1015.3 1014.5
03 17.02 штиль 0 4000 м ясно +19.2 0.0 27 +19 +22 1016.9 1016.1 +18.8
06 17.02 С 3 4000 м ясно +22.8 0.0 22 +22 +34 комфорт 1018.5 1017.7
09 17.02 С 3 4000 м ясно +24.0 0.0 20 +23 +33 комфорт 1015.7 1014.9
12 17.02 С 2 4000 м ясно +23.6 0.0 21 +22 +24 комфорт 1013.4 1012.6 +24.3
15 17.02 С 2 4000 м ясно +21.8 +15.8 69 +25 +25 комфорт 1014.8 1014.0
18 17.02 С 2 4000 м ясно +21.2 +17.7 80 +25 +25 комфорт 1014.8 1014.0
21 17.02 С 2 4000 м ясно +21.0 +18.1 84 +26 +26 душно 1013.0 1012.2
00 18.02 С 2 4000 м ясно +21.0 +19.1 89 +26 +26 душно 1012.4 1011.6
03 18.02 СЗ 2 4000 м ясно +21.4 0.0 24 +21 +23 комфорт 1014.2 1013.4 +20.4
06 18.02 СЗ 3 4000 м 1/1 600 м
[Sc]
+25.0 0.0 19 +23 +34 комфорт 1015.1 1014.3
09 18.02 СЗ 3 4000 м 3/3
[Sc]
+26.4 0.0 18 +25 +33 комфорт 1012.5 1011.7
12 18.02 З 3 4000 м 3/3 600 м
[Sc]
+25.4 0.0 19 +24 +25 комфорт 1010.7 1009.9 +26.9
15 18.02 С 2 4000 м ясно +22.6 +20.1 86 +29 +29 очень
душно
1011.0 1010.2
18 18.02 З 2 4000 м ясно +22.0 +19.5 86 +28 +28 душно 1012.1 1011.3
21 18.02 С 2 4000 м ясно +21.8 +19.6 87 +27 +27 душно 1011.3 1010.5
00 19.02 штиль 0 4000 м ясно +21.2 +19.6 91 +26 +26 душно 1010.7 1009.9
03 19.02 штиль 0 4000 м 6/0 2000 м
[Ac trans Ci fib]
+21.4 +19.8 91 +26 +29 душно 1013.0 1012.2 +20.6
06 19.02 С 2 4000 м 3/0 2000 м
[Ac trans]
+24.8 0.0 20 +23 +35 комфорт 1015.1 1014.3
09 19.02 С 3 4000 м 5/0
[Ci fib]
+25.0 0.0 19 +23 +34 комфорт 1013.6 1012.8
12 19.02 С 2 4000 м 5/0 2000 м
[Ac trans]
+24.6 0.0 20 +23 +24 комфорт 1012.4 1011.6 +25.8
15 19.02 С 2 4000 м ясно +22.6 +20.4 87 +29 +29 очень
душно
1014.0 1013.2
18 19.02 С 2 4000 м 4/0 2000 м
[Ac trans]
+22.2 +20.7 91 +29 +29 очень
душно
1014.8 1014.0
21 19.02 С 1 4000 м ясно +22.0 +20.5 91 +28 +28 душно 1014.2 1013.4
00 20.02 С 2 4000 м 6/0 2000 м
[Ac trans]
+22.0 +20.5 91 +28 +28 душно 1013.7 1012.9
03 20.02 штиль 0 4000 м 8/3 600 м
[Sc Ac trans Ci fib]
+21.6 0.0 24 +21 +22 комфорт 1015.0 1014.2 +20.9

 

Местоположение метеостанции Оха (Гуджарат, Индия): широта 22.48 долгота 69.12 высота над уровнем моря 7 м.

В архиве по умолчанию представлена погода в Охе за последнюю неделю. Архивные данные за месяц целиком и за предыдущие месяцы, начиная с января 2011 года, Вы можете получить, выбрав интересующий диапазон дат из раскрывающегося списка и нажав кнопку "Ввод!".


*Определитесь, кто Вы:
робот инопланетянин человек

Внимание! Время в таблицах - всемирное. Для получения местного времени необходимо прибавить поправку, которая равна 5.5 ч.

Смотрите также архив погоды в соседних городах и на ближайших метеорологических станциях:

Погода в Дварке (Гуджарат, Индия) (13 км)
Погода в Мандви (Гуджарат, Индия) (41 км)
Погода в Налии (Гуджарат, Индия) (90 км)
Погода в Бхудже (Гуджарат, Индия) (103 км)
Погода в Порбандаре (Гуджарат, Индия) (108 км)
Погода в Кандле (Гуджарат, Индия) (123 км)
Погода в Нью-Кандле (Гуджарат, Индия) (127 км)
Погода в Раджкоте (Гуджарат, Индия) (172 км)
Погода в Веравале (Гуджарат, Индия) (218 км)
Погода в Амрели (Гуджарат, Индия) (238 км)

Пояснения к столбцам:

Ветер - указаны скорость ветра в м/с - средняя за 10 мин, порывы в срок и между сроками (в фигурных скобках) и направление, откуда дует ветер: С - северный, СВ - северо-восточный, В - восточный, ЮВ - юго-восточный, Ю - южный, ЮЗ - юго-западный, З - западный, СЗ - северо-западный.
Видимость - горизонтальная дальность видимости в метрах или километрах. При видимости от 1 до 10 км при отсутствии осадков обычно наблюдается дымка, при ухудшении видимости до 1 км и менее - туман. В сухую погоду видимость может ухудшаться дымом, пылью или мглою.
Явления - указаны атмосферные явления, наблюдавшиеся в срок или в последний час перед сроком; фигурными скобками обозначены явления, наблюдавшиеся между сроками (за 1-3 часа до срока); квадратными скобками обозначены град или гололедные отложения с указанием их диаметра в мм.
Облачность - указаны через наклонную черту общая и нижняя облачность в баллах и высота нижней границы облаков в метрах; квадратными скобками обозначены формы облаков: Ci - перистые, Cs - перисто-слоистые, Cc - перисто-кучевые, Ac - высококучевые, As - высокослоистые, Sc - слоисто-кучевые, Ns - слоисто-дождевые, Cu - кучевые, Cb - кучево-дождевые. Подробнее классификацию облаков см. в Атласе облаков (PDF).
T - Температура воздуха - температура, измеренная на высоте 2 м над землей.
Td - Температура точки росы - температура, при понижении до которой содержащийся в воздухе водяной пар достигнет насыщения.
f - Относительная влажность воздуха - влажноcть воздуха, измеренная на высоте 2 м над землей.
Te - Эффективная температура - температура, которую ощущает одетый по сезону человек в тени. Характеристика душности погоды. При расчете учитывается влияние влажности воздуха и скорости ветра на теплоощущения человека.
Tes - Эффективная температура на солнце - температура, которую ощущает человек, с поправкой на солнечный нагрев. Характеристика знойности погоды. Зависит от высоты солнца над горизонтом, облачности и скорости ветра. Ночью, в пасмурную погоду, а также при ветре 12 м/с и более поправка равна нулю.
P - Атмосферное давление - приведенное к уровню моря атмосферное давление.
Po - Атмосферное давление - измеренное на уровне метеостанции атмосферное давление.
Tmin - Минимальная температура - минимум температуры воздуха на высоте 2 м над землей.
Tmax - Максимальная температура - максимум температуры воздуха на высоте 2 м над землей.
R - Количество осадков - Количество выпавших осадков за период времени, мм. При наведении курсора мыши на число - период времени, за который выпало указанное количество осадков.
R24 - Количество осадков - Количество выпавших осадков за 24 часа, мм.
S - Снежный покров - Высота снежного покрова, см. При наведении курсора мыши на число - состояние снежного покрова и степень покрытия местности в баллах.